C/2016 M1 ( PanSTARRS )

Japanese version
Home page
Updated on January 17, 2017

---------------------------------------------------------------------

* Profile

Discovery Date June 22, 2016
Magnitude 19.7 mag
Discoverer Pan-STARRS 1 telescope (Haleakala)

* Pictures

* Orbital Elements

Epoch 2018 Aug. 30.0 TT = JDT 2458360.5
T 2018 Aug. 10.14839 TT                                 MPCW
q   2.2105724            (2000.0)            P               Q
z  +0.0003839      Peri.  209.82226     +0.02469716     -0.03425310
 +/-0.0000150      Node    92.20420     -0.59791041     +0.80045014
e   0.9991514      Incl.   90.99973     -0.80118237     -0.59841983
From 444 observations 2016 June 22-Nov. 2, mean residual 0".6.

* Finding Charts

* Magnitudes Graph

        m1 = 5.0 + 5 log d + 10.0 log r

---------------------------------------------------------------------

The orbital elements are published on M.P.E.C. 2016-V116.
The charts are made with StellaNavigator Ver.10 (AstroArts).
The magnitudes graphs are made with Comet for Windows.

---------------------------------------------------------------------

Copyright(C) Seiichi Yoshida (comet@aerith.net). All rights reserved.